| time (UTC) | temp F | wind direction | speed knots | gust knots | rain 1hr in | rain 24hr in | rain mn in | humidity % | barometer mb |
| 20260504231005 | 84 | 225 | 5.2 | 15.6 | 0.00 | 0.00 | 0.00 | 43 | 1017.6 |
| 20260504230005 | 85 | 214 | 2.6 | 17.4 | 0.00 | 0.00 | 0.00 | 43 | 1017.5 |
| 20260504225004 | 85 | 158 | 6.1 | 21.7 | 0.00 | 0.00 | 0.00 | 43 | 1017.8 |
| 20260504224004 | 85 | 160 | 6.1 | 17.4 | 0.00 | 0.00 | 0.00 | 42 | 1017.6 |
| 20260504221004 | 86 | 155 | 8.7 | 18.2 | 0.00 | 0.00 | 0.00 | 43 | 1017.7 |
| 20260504220004 | 86 | 137 | 7.8 | 15.6 | 0.00 | 0.00 | 0.00 | 44 | 1017.9 |
| 20260504215004 | 86 | 93 | 4.3 | 15.6 | 0.00 | 0.00 | 0.00 | 42 | 1018.0 |
| 20260504214004 | 86 | 203 | 7.8 | 20.0 | 0.00 | 0.00 | 0.00 | 39 | 1018.2 |
| 20260504210004 | 86 | 243 | 3.5 | 14.8 | 0.00 | 0.00 | 0.00 | 33 | 1018.3 |
| 20260504205004 | 86 | 148 | 8.7 | 14.8 | 0.00 | 0.00 | 0.00 | 34 | 1018.4 |
| 20260504204004 | 87 | 195 | 3.5 | 19.1 | 0.00 | 0.00 | 0.00 | 35 | 1018.7 |
| 20260504203005 | 86 | 162 | 7.8 | 19.1 | 0.00 | 0.00 | 0.00 | 36 | 1018.7 |
| 20260504202005 | 87 | 253 | 3.5 | 18.2 | 0.00 | 0.00 | 0.00 | 35 | 1018.8 |
| 20260504201004 | 85 | 196 | 1.7 | 18.2 | 0.00 | 0.00 | 0.00 | 38 | 1019.1 |
| 20260504200004 | 85 | 180 | 3.5 | 20.9 | 0.00 | 0.00 | 0.00 | 37 | 1019.3 |
| 20260504195004 | 85 | 167 | 4.3 | 19.1 | 0.00 | 0.00 | 0.00 | 38 | 1019.2 |
| 20260504194004 | 84 | 158 | 6.1 | 15.6 | 0.00 | 0.00 | 0.00 | 39 | 1019.4 |
| 20260504193004 | 86 | 172 | 6.1 | 13.9 | 0.00 | 0.00 | 0.00 | 38 | 1019.6 |
| 20260504192004 | 85 | 145 | 2.6 | 13.9 | 0.00 | 0.00 | 0.00 | 38 | 1019.6 |
| 20260504190018 | 84 | 133 | 6.1 | 15.6 | 0.00 | 0.00 | 0.00 | 40 | 1019.8 |
| 20260504185005 | 83 | 158 | 8.7 | 19.1 | 0.00 | 0.00 | 0.00 | 41 | 1020.0 |
| 20260504184010 | 84 | 178 | 6.1 | 19.1 | 0.00 | 0.00 | 0.00 | 41 | 1020.0 |
| 20260504183011 | 83 | 121 | 10.4 | 19.1 | 0.00 | 0.00 | 0.00 | 41 | 1020.1 |
| 20260504182009 | 83 | 168 | 4.3 | 13.0 | 0.00 | 0.00 | 0.00 | 41 | 1020.4 |
| 20260504180003 | 81 | 139 | 6.1 | 13.0 | 0.00 | 0.00 | 0.00 | 42 | 1020.7 |
| 20260504175004 | 82 | 268 | 2.6 | 11.3 | 0.00 | 0.00 | 0.00 | 43 | 1020.8 |
| 20260504174002 | 82 | 176 | 4.3 | 10.4 | 0.00 | 0.00 | 0.00 | 44 | 1021.0 |
| 20260504173002 | 81 | 181 | 1.7 | 11.3 | 0.00 | 0.00 | 0.00 | 43 | 1021.1 |
| 20260504172003 | 82 | 179 | 1.7 | 11.3 | 0.00 | 0.00 | 0.00 | 43 | 1021.3 |
| 20260504171004 | 82 | 211 | 1.7 | 10.4 | 0.00 | 0.00 | 0.00 | 44 | 1021.4 |
| 20260504151002 | 71 | 244 | 0.9 | 4.3 | 0.00 | 0.00 | 0.00 | 72 | 1022.1 |
| 20260504082003 | 62 | 81 | 0.0 | 1.7 | 0.00 | 0.00 | 0.00 | 93 | 1020.8 |
| 20260504081002 | 63 | 112 | 1.7 | 1.7 | 0.00 | 0.00 | 0.00 | 93 | 1020.9 |
| 20260504045004 | 67 | 138 | 8.7 | 19.1 | 0.00 | 0.00 | 0.00 | 91 | 1021.7 |
| 20260504044004 | 67 | 161 | 8.7 | 18.2 | 0.00 | 0.00 | 0.00 | 91 | 1021.4 |
| 20260504043003 | 67 | 154 | 5.2 | 18.2 | 0.00 | 0.00 | 0.00 | 91 | 1021.5 |
| 20260504042003 | 67 | 161 | 5.2 | 22.6 | 0.00 | 0.00 | 0.00 | 90 | 1021.3 |
| 20260504041003 | 68 | 142 | 12.2 | 24.3 | 0.00 | 0.00 | 0.00 | 90 | 1021.1 |
| 20260504040004 | 68 | 154 | 12.2 | 26.1 | 0.00 | 0.00 | 0.00 | 89 | 1021.0 |
| 20260504035004 | 68 | 120 | 14.8 | 26.1 | 0.00 | 0.00 | 0.00 | 89 | 1020.9 |
| 20260504034004 | 68 | 173 | 7.8 | 20.9 | 0.00 | 0.00 | 0.00 | 88 | 1020.6 |
| 20260504033004 | 68 | 148 | 10.4 | 25.2 | 0.00 | 0.00 | 0.00 | 89 | 1020.7 |
| 20260504032003 | 68 | 139 | 13.9 | 25.2 | 0.00 | 0.00 | 0.00 | 89 | 1020.5 |
| 20260504030007 | 69 | 164 | 8.7 | 21.7 | 0.00 | 0.00 | 0.00 | 88 | 1020.3 |
| 20260504025004 | 69 | 145 | 12.2 | 26.1 | 0.00 | 0.00 | 0.00 | 88 | 1020.0 |
| 20260504024004 | 69 | 137 | 7.8 | 25.2 | 0.00 | 0.00 | 0.00 | 88 | 1019.9 |
| 20260504023004 | 69 | 139 | 13.9 | 25.2 | 0.00 | 0.00 | 0.00 | 88 | 1019.9 |
| 20260504022003 | 69 | 136 | 11.3 | 25.2 | 0.00 | 0.00 | 0.00 | 88 | 1019.8 |
| 20260504021004 | 70 | 148 | 10.4 | 26.9 | 0.00 | 0.00 | 0.00 | 87 | 1019.5 |
| 20260504020003 | 70 | 137 | 18.2 | 26.9 | 0.00 | 0.00 | 0.00 | 86 | 1019.2 |
| 20260504015003 | 70 | 145 | 13.9 | 21.7 | 0.00 | 0.00 | 0.00 | 84 | 1019.2 |
| 20260504014003 | 71 | 153 | 8.7 | 21.7 | 0.00 | 0.00 | 0.00 | 83 | 1019.0 |
| 20260504013004 | 72 | 148 | 11.3 | 24.3 | 0.00 | 0.00 | 0.00 | 81 | 1018.9 |
| 20260504012003 | 73 | 149 | 14.8 | 21.7 | 0.00 | 0.00 | 0.00 | 78 | 1018.7 |
| 20260504011004 | 73 | 130 | 8.7 | 21.7 | 0.00 | 0.00 | 0.00 | 77 | 1018.6 |
| 20260504010004 | 74 | 161 | 8.7 | 20.9 | 0.00 | 0.00 | 0.00 | 75 | 1018.3 |
| 20260504004003 | 77 | 150 | 9.6 | 20.0 | 0.00 | 0.00 | 0.00 | 70 | 1018.1 |
| 20260504003003 | 77 | 158 | 7.8 | 17.4 | 0.00 | 0.00 | 0.00 | 68 | 1018.0 |
| 20260504002003 | 77 | 155 | 6.1 | 25.2 | 0.00 | 0.00 | 0.00 | 68 | 1017.9 |
| 20260504000003 | 79 | 158 | 9.6 | 21.7 | 0.00 | 0.00 | 0.00 | 64 | 1017.9 |
| 20260503235003 | 79 | 143 | 13.0 | 22.6 | 0.00 | 0.00 | 0.00 | 63 | 1017.8 |
| 20260503234004 | 80 | 147 | 6.1 | 22.6 | 0.00 | 0.00 | 0.00 | 61 | 1018.1 |
| 20260503233003 | 80 | 167 | 8.7 | 19.1 | 0.00 | 0.00 | 0.00 | 62 | 1017.9 |